M I D A S
Marine Information and Data Acquisition System
Tripno 1470 of the Zeeleeuw from 2007-12-04 07:34:34 to 2007-12-04 13:11:10
Back to CruiseResearch ActivitiesStationsMapUnderway DataData graphs

EquipmentUnitsComment
TimeDGPSUTC
LatitudeDGPSDM.mWGS84
LongitudeDGPSDM.mWGS84
HeadingGyrodeg 
SOGDGPSknotsSpeed over ground
COGDGPSdegCourse over ground
DepthEcho soundermeters200 kHz
Missing or incorrect values are displayed as -999
Navigation data collected by the RV Zeeleeuw from 2007-12-04 07:35:02 to 2007-12-04 13:26:15
                                                                                    Next 1000 lines
Time Latitude Longitude Heading SOG COG Depth
2007-12-04 07:35:12 51°13.598 2°56.094 113.8 0.4 295 10.2
2007-12-04 07:35:17 51°13.598 2°56.093 113.9 0.5 295 10.2
2007-12-04 07:35:22 51°13.599 2°56.092 113.9 0.6 295 10.2
2007-12-04 07:35:26 51°13.599 2°56.09 114 0.8 292 10.2
2007-12-04 07:35:32 51°13.599 2°56.088 114 0.9 292 -999
2007-12-04 07:35:37 51°13.6 2°56.086 113.9 1.1 291 10.3
2007-12-04 07:35:41 51°13.6 2°56.084 113.8 1.2 289 10.4
2007-12-04 07:35:46 51°13.601 2°56.081 113.8 1.4 289 10.5
2007-12-04 07:35:51 51°13.602 2°56.078 114 1.6 289 4.8
2007-12-04 07:35:57 51°13.603 2°56.073 114.7 1.8 291 -999
2007-12-04 07:36:02 51°13.604 2°56.069 115.5 1.9 291 -999
2007-12-04 07:36:08 51°13.605 2°56.064 116.2 2.1 294 -999
2007-12-04 07:36:13 51°13.606 2°56.06 116.4 2.3 293 -999
2007-12-04 07:36:18 51°13.608 2°56.054 116.3 2.5 293 -999
2007-12-04 07:36:23 51°13.609 2°56.049 116.1 2.7 293 -999
2007-12-04 07:36:28 51°13.611 2°56.043 116 2.8 292 -999
2007-12-04 07:36:33 51°13.612 2°56.037 115.9 3 292 -999
2007-12-04 07:36:38 51°13.614 2°56.031 116.2 3.1 292 -999
2007-12-04 07:36:43 51°13.616 2°56.024 116.8 3.2 292 -999
2007-12-04 07:36:48 51°13.618 2°56.018 117.5 3.3 294 -999
2007-12-04 07:36:53 51°13.62 2°56.011 118.3 3.4 294 -999
2007-12-04 07:36:58 51°13.622 2°56.004 119.3 3.5 296 -999
2007-12-04 07:37:03 51°13.624 2°55.997 120.4 3.5 297 -999
2007-12-04 07:37:08 51°13.626 2°55.99 121.1 3.6 298 -999
2007-12-04 07:37:13 51°13.629 2°55.983 121.8 3.6 299 -999
2007-12-04 07:37:18 51°13.631 2°55.976 122.4 3.6 299 -999
2007-12-04 07:37:23 51°13.634 2°55.969 122.8 3.6 300 -999
2007-12-04 07:37:28 51°13.636 2°55.962 123.1 3.6 301 -999
2007-12-04 07:37:33 51°13.639 2°55.955 123.3 3.6 302 -999
2007-12-04 07:37:38 51°13.641 2°55.948 123.3 3.7 301 -999
2007-12-04 07:37:43 51°13.644 2°55.941 123.3 3.7 301 -999
2007-12-04 07:37:48 51°13.647 2°55.934 123.2 3.8 301 -999
2007-12-04 07:37:53 51°13.65 2°55.927 122.9 3.9 301 -999
2007-12-04 07:37:58 51°13.653 2°55.919 122.6 4 301 -999
2007-12-04 07:38:03 51°13.656 2°55.911 122 4.1 301 -999
2007-12-04 07:38:08 51°13.658 2°55.903 121.2 4.2 299 -999
2007-12-04 07:38:13 51°13.662 2°55.895 120.1 4.3 299 -999
2007-12-04 07:38:18 51°13.664 2°55.887 118.9 4.3 297 -999
2007-12-04 07:38:23 51°13.667 2°55.879 117.6 4.2 296 -999
2007-12-04 07:38:28 51°13.67 2°55.87 116.5 4.2 295 -999
2007-12-04 07:38:33 51°13.672 2°55.862 115.4 4.1 296 -999
2007-12-04 07:38:38 51°13.675 2°55.854 114.6 4.1 297 -999
2007-12-04 07:38:43 51°13.677 2°55.846 113.3 4 296 -999
2007-12-04 07:38:48 51°13.679 2°55.838 112.3 3.9 292 -999
2007-12-04 07:38:53 51°13.681 2°55.83 111.1 3.8 291 -999
2007-12-04 07:38:58 51°13.683 2°55.822 110.2 3.7 290 -999
2007-12-04 07:39:03 51°13.684 2°55.814 109.4 3.7 289 -999
2007-12-04 07:39:08 51°13.686 2°55.807 108.3 3.6 287 -999
2007-12-04 07:39:13 51°13.687 2°55.799 107.4 3.6 286 -999
2007-12-04 07:39:18 51°13.688 2°55.792 106.5 3.5 285 -999
2007-12-04 07:39:23 51°13.689 2°55.784 105.3 3.4 285 -999
2007-12-04 07:39:28 51°13.691 2°55.777 104 3.4 283 -999
2007-12-04 07:39:33 51°13.692 2°55.77 102.8 3.3 282 -999
2007-12-04 07:39:38 51°13.692 2°55.763 101.6 3.1 280 -999
2007-12-04 07:39:43 51°13.693 2°55.756 100.6 3 279 -999
2007-12-04 07:39:48 51°13.694 2°55.75 99.6 2.8 279 14.6
2007-12-04 07:39:53 51°13.694 2°55.745 98.8 2.4 278 14.6
2007-12-04 07:39:58 51°13.694 2°55.741 97.4 2 275 15
2007-12-04 07:40:02 51°13.695 2°55.737 96.3 1.7 275 15.3
2007-12-04 07:40:07 51°13.695 2°55.734 94.8 1.4 273 15.5
2007-12-04 07:40:12 51°13.695 2°55.731 93.1 1.2 275 15.5
2007-12-04 07:40:17 51°13.695 2°55.729 91.8 0.9 273 15.2
2007-12-04 07:40:22 51°13.694 2°55.728 90.4 0.7 276 14.8
2007-12-04 07:40:26 51°13.694 2°55.727 88.6 0.4 283 15.1
2007-12-04 07:40:31 51°13.694 2°55.727 86.5 0.1 313 15.1
2007-12-04 07:40:36 51°13.695 2°55.727 83.8 0.3 56 15.1
2007-12-04 07:40:41 51°13.695 2°55.728 80.5 0.6 64 15.2
2007-12-04 07:40:46 51°13.696 2°55.73 76.7 0.9 62 15.1
2007-12-04 07:40:50 51°13.696 2°55.732 72.5 1.1 64 15.2
2007-12-04 07:40:55 51°13.697 2°55.734 67.8 1.4 58 15.3
2007-12-04 07:41:00 51°13.698 2°55.737 62.7 1.4 55 15.2
2007-12-04 07:41:05 51°13.699 2°55.739 57.3 1.3 49 15.2
2007-12-04 07:41:10 51°13.7 2°55.741 53.7 1.1 52 15.2
2007-12-04 07:41:14 51°13.701 2°55.742 50.7 0.8 45 15.5
2007-12-04 07:41:19 51°13.701 2°55.742 47.8 0.6 42 15.5
2007-12-04 07:41:25 51°13.702 2°55.742 45 0.1 12 15.5
2007-12-04 07:41:29 51°13.701 2°55.742 42.7 0.4 231 15.5
2007-12-04 07:41:34 51°13.7 2°55.741 40.8 0.9 223 15.4
2007-12-04 07:41:39 51°13.699 2°55.739 39.4 1.3 222 15.2
2007-12-04 07:41:45 51°13.697 2°55.736 38.1 1.7 219 15.1
2007-12-04 07:41:50 51°13.695 2°55.733 36.4 1.8 217 -999
2007-12-04 07:41:56 51°13.692 2°55.731 35.1 1.7 216 -999
2007-12-04 07:42:01 51°13.691 2°55.729 34.3 1.5 215 -999
2007-12-04 07:42:07 51°13.689 2°55.727 33.7 1.2 212 -999
2007-12-04 07:42:13 51°13.688 2°55.726 32.8 0.5 216 -999
2007-12-04 07:42:18 51°13.688 2°55.726 30.6 0.2 14 -999
2007-12-04 07:42:23 51°13.689 2°55.727 26.1 0.8 18 -999
2007-12-04 07:42:28 51°13.691 2°55.727 21 1.3 16 -999
2007-12-04 07:42:33 51°13.694 2°55.728 15 1.8 9 -999
2007-12-04 07:42:38 51°13.696 2°55.728 8.3 2.2 3 -999
2007-12-04 07:42:43 51°13.7 2°55.728 1 2.2 355 -999
2007-12-04 07:42:48 51°13.703 2°55.727 352.8 2.2 349 -999
2007-12-04 07:42:53 51°13.706 2°55.725 348.4 2.4 344 16.8
2007-12-04 07:42:58 51°13.709 2°55.724 345.2 2.6 342 14.9
2007-12-04 07:43:02 51°13.712 2°55.722 342.7 2.8 339 14.5
2007-12-04 07:43:07 51°13.716 2°55.72 340.9 3 337 14.1
2007-12-04 07:43:12 51°13.72 2°55.717 339.4 3.2 335 14.1
2007-12-04 07:43:17 51°13.724 2°55.714 338.9 3.4 336 13.7
2007-12-04 07:43:22 51°13.729 2°55.71 338.6 3.7 335 13.4
2007-12-04 07:43:26 51°13.733 2°55.707 338.2 4 336 13.4
2007-12-04 07:43:31 51°13.738 2°55.703 338.2 4.2 335 13.4
2007-12-04 07:43:36 51°13.744 2°55.7 338.6 4.5 336 13.5
2007-12-04 07:43:41 51°13.75 2°55.695 338.7 4.8 335 13.4
2007-12-04 07:43:46 51°13.757 2°55.69 338.6 5.1 335 13.3
2007-12-04 07:43:50 51°13.762 2°55.687 338.2 5.4 336 13.3
2007-12-04 07:43:55 51°13.769 2°55.681 337.6 5.6 335 13.3
2007-12-04 07:44:00 51°13.776 2°55.676 337.5 5.8 334 13.1
2007-12-04 07:44:05 51°13.784 2°55.67 337.6 6.1 335 13.1
2007-12-04 07:44:10 51°13.792 2°55.664 337.8 6.4 335 13.1
2007-12-04 07:44:14 51°13.799 2°55.659 337.7 6.8 334 13.3
2007-12-04 07:44:19 51°13.808 2°55.652 337.2 7.1 334 13.3
2007-12-04 07:44:25 51°13.819 2°55.644 336.8 7.4 334 13.2
2007-12-04 07:44:27 51°13.822 2°55.641 336.8 2.7 335 13.2
2007-12-04 07:44:34 51°13.836 2°55.63 336.8 7.1 333 13.2
2007-12-04 07:44:40 51°13.848 2°55.62 336.8 8.3 333 13.1
2007-12-04 07:44:44 51°13.856 2°55.613 336.5 8.3 332 13
2007-12-04 07:44:49 51°13.866 2°55.604 335.4 8.5 332 13
2007-12-04 07:44:55 51°13.879 2°55.593 334.8 8.7 332 13
2007-12-04 07:45:00 51°13.89 2°55.585 335.6 8.8 334 12.9
2007-12-04 07:45:04 51°13.899 2°55.578 336.7 8.9 334 13
2007-12-04 07:45:09 51°13.91 2°55.569 336.7 8.9 334 13.1
2007-12-04 07:45:15 51°13.923 2°55.559 337.2 9 335 13.1
2007-12-04 07:45:19 51°13.933 2°55.553 338.9 9 337 13.1
2007-12-04 07:45:24 51°13.944 2°55.545 339.5 9.1 335 13
2007-12-04 07:45:29 51°13.956 2°55.536 338.8 9.1 336 12.9
2007-12-04 07:45:34 51°13.968 2°55.529 339.5 9.2 337 12.9
2007-12-04 07:45:39 51°13.979 2°55.52 339.3 9.3 336 12.7
2007-12-04 07:45:45 51°13.993 2°55.51 338.6 9.3 336 12.7
2007-12-04 07:45:49 51°14.003 2°55.504 339.5 9.3 337 12.6
2007-12-04 07:45:53 51°14.012 2°55.497 340.5 9.3 337 12.4
2007-12-04 07:45:59 51°14.026 2°55.488 340.4 9.3 337 12.1
2007-12-04 07:46:05 51°14.04 2°55.478 339.6 9.3 336 12.6
2007-12-04 07:46:09 51°14.05 2°55.471 339.5 9.3 337 12.8
2007-12-04 07:46:15 51°14.064 2°55.461 339.6 9.3 336 13
2007-12-04 07:46:19 51°14.073 2°55.454 339.6 9.2 336 12.6
2007-12-04 07:46:25 51°14.088 2°55.445 340.3 9.2 337 12.7
2007-12-04 07:46:29 51°14.097 2°55.438 340.6 9.2 337 12.8
2007-12-04 07:46:34 51°14.109 2°55.43 339.8 9.2 336 12.9
2007-12-04 07:46:40 51°14.122 2°55.42 338.9 9.2 335 -999
2007-12-04 07:46:46 51°14.136 2°55.409 338.1 9.2 334 -999
2007-12-04 07:46:52 51°14.15 2°55.398 336.4 9.3 333 -999
2007-12-04 07:46:57 51°14.162 2°55.388 335.8 9.4 332 -999
2007-12-04 07:47:03 51°14.175 2°55.376 334.9 9.5 330 -999
2007-12-04 07:47:08 51°14.187 2°55.365 333.2 9.4 328 -999
2007-12-04 07:47:13 51°14.197 2°55.353 331 9.5 325 -999
2007-12-04 07:47:18 51°14.208 2°55.34 327.3 9.5 322 -999
2007-12-04 07:47:23 51°14.217 2°55.326 323.9 9.5 319 -999
2007-12-04 07:47:28 51°14.227 2°55.312 322.5 9.6 317 12.9
2007-12-04 07:47:33 51°14.237 2°55.297 321 9.7 316 13
2007-12-04 07:47:38 51°14.246 2°55.281 319.3 9.8 312 12.8
2007-12-04 07:47:43 51°14.255 2°55.265 316.8 9.9 313 12.9
2007-12-04 07:47:48 51°14.264 2°55.248 315.3 9.9 310 12.8
2007-12-04 07:47:52 51°14.271 2°55.235 314.3 10 310 13
2007-12-04 07:47:57 51°14.279 2°55.218 313.4 10 307 13
2007-12-04 07:48:02 51°14.288 2°55.201 312 9.9 309 12.8
2007-12-04 07:48:07 51°14.297 2°55.184 311.8 9.9 310 12.6
2007-12-04 07:48:12 51°14.306 2°55.167 312.2 10 311 12.9
2007-12-04 07:48:16 51°14.313 2°55.154 312.9 9.8 310 12.6
2007-12-04 07:48:21 51°14.322 2°55.137 312.8 9.7 311 13
2007-12-04 07:48:26 51°14.33 2°55.121 312.4 9.7 310 13
2007-12-04 07:48:31 51°14.339 2°55.103 311.5 9.8 308 12.8
2007-12-04 07:48:36 51°14.347 2°55.086 310.4 9.9 306 12.9
2007-12-04 07:48:40 51°14.353 2°55.072 309.1 10 306 12.9
2007-12-04 07:48:45 51°14.361 2°55.054 308.2 10 306 12.9
2007-12-04 07:48:50 51°14.37 2°55.036 308.9 10 310 12.8
2007-12-04 07:48:55 51°14.38 2°55.019 309.7 10.1 312 12.7
2007-12-04 07:48:59 51°14.388 2°55.005 309.5 10.3 314 12.8
2007-12-04 07:49:04 51°14.398 2°54.99 310.7 10.1 316 12.6
2007-12-04 07:49:09 51°14.408 2°54.974 312 10 316 12.7
2007-12-04 07:49:15 51°14.419 2°54.955 310.5 9.9 312 12.7
2007-12-04 07:49:19 51°14.426 2°54.94 307 9.8 306 13
2007-12-04 07:49:24 51°14.433 2°54.922 300.4 9.9 300 13.2
2007-12-04 07:49:29 51°14.44 2°54.903 297.3 10 297 13.4
2007-12-04 07:49:35 51°14.446 2°54.878 293.2 9.8 292 13.5
2007-12-04 07:49:39 51°14.449 2°54.862 288.4 9.4 285 13.1
2007-12-04 07:49:44 51°14.452 2°54.842 283.7 9.5 281 13.2
2007-12-04 07:49:49 51°14.454 2°54.821 279.3 9.4 278 13.1
2007-12-04 07:49:54 51°14.454 2°54.8 273.8 9.5 271 13
2007-12-04 07:49:59 51°14.453 2°54.779 268.8 9.7 269 13.6
2007-12-04 07:50:05 51°14.452 2°54.753 265.3 9.8 265 13.6
2007-12-04 07:50:09 51°14.451 2°54.736 263.5 9.9 264 13.2
2007-12-04 07:50:13 51°14.449 2°54.718 263.1 10.1 262 13.3
2007-12-04 07:50:19 51°14.447 2°54.691 262.5 10.1 262 13.3
2007-12-04 07:50:25 51°14.445 2°54.665 262 10.2 262 13.1
2007-12-04 07:50:29 51°14.442 2°54.647 260.2 10.2 259 13.1
2007-12-04 07:50:34 51°14.439 2°54.624 258.7 10.5 259 13.3
2007-12-04 07:50:39 51°14.435 2°54.602 257.4 10.5 256 13.7
2007-12-04 07:50:45 51°14.431 2°54.575 256 10.7 253 12.9
2007-12-04 07:50:49 51°14.428 2°54.556 254.7 10.8 255 13
2007-12-04 07:50:54 51°14.423 2°54.534 253.2 10.7 250 13
2007-12-04 07:50:59 51°14.417 2°54.512 250.8 10.8 249 13.2
2007-12-04 07:51:05 51°14.41 2°54.486 249.8 10.9 245 12.7
2007-12-04 07:51:09 51°14.406 2°54.468 248.5 10.8 249 12.4
2007-12-04 07:51:14 51°14.399 2°54.447 247.9 10.9 243 12.1
2007-12-04 07:51:19 51°14.394 2°54.423 248.9 10.9 248 -999
2007-12-04 07:51:25 51°14.386 2°54.397 247.5 10.9 247 11.9
2007-12-04 07:51:29 51°14.381 2°54.379 248.5 11 247 12
2007-12-04 07:51:34 51°14.375 2°54.357 248.4 11.1 251 12.1
2007-12-04 07:51:40 51°14.367 2°54.331 249 11.1 240 12.1
2007-12-04 07:51:44 51°14.363 2°54.312 248.4 10.9 251 11.7
2007-12-04 07:51:49 51°14.357 2°54.291 248.9 10.8 243 11.5
2007-12-04 07:51:55 51°14.351 2°54.263 248.4 11.1 252 11.7
2007-12-04 07:52:00 51°14.343 2°54.242 248.2 10.9 244 11.7
2007-12-04 07:52:04 51°14.34 2°54.223 248.4 10.9 244 11.2
2007-12-04 07:52:09 51°14.332 2°54.202 246.9 11 245 11.4
2007-12-04 07:52:14 51°14.326 2°54.18 248.2 11.1 242 11.5
2007-12-04 07:52:20 51°14.319 2°54.152 247.6 11.2 250 11.8
2007-12-04 07:52:24 51°14.314 2°54.134 248.9 11 242 11.4
2007-12-04 07:52:29 51°14.308 2°54.112 247.9 11 248 11.7
2007-12-04 07:52:34 51°14.302 2°54.09 248.5 11 242 11.9
2007-12-04 07:52:40 51°14.295 2°54.063 247.5 11.1 249 11.8
2007-12-04 07:52:45 51°14.289 2°54.04 248.9 11 246 11.8
2007-12-04 07:52:49 51°14.283 2°54.022 247.5 11.1 245 11.6
2007-12-04 07:52:53 51°14.279 2°54.004 248.5 11.1 248 11.8
2007-12-04 07:52:59 51°14.271 2°53.977 248.2 11.1 243 11.7
2007-12-04 07:53:05 51°14.265 2°53.95 248.9 11.1 248 11.7
2007-12-04 07:53:09 51°14.259 2°53.932 249 11.2 244 11.9
2007-12-04 07:53:14 51°14.255 2°53.909 249.4 11.1 245 11.5
2007-12-04 07:53:19 51°14.247 2°53.887 247.8 11.1 250 11.8
2007-12-04 07:53:25 51°14.239 2°53.861 247.7 11.2 240 11.9
2007-12-04 07:53:29 51°14.235 2°53.842 246.2 11.3 249 12.1
2007-12-04 07:53:34 51°14.227 2°53.82 246.1 11.2 241 12.1
2007-12-04 07:53:39 51°14.221 2°53.798 245.2 11.1 245 11.9
2007-12-04 07:53:45 51°14.212 2°53.772 245.7 11.2 241 11.8
2007-12-04 07:53:49 51°14.206 2°53.754 244.4 11.1 243 12.1
2007-12-04 07:53:53 51°14.202 2°53.737 246.9 11 243 12.2
2007-12-04 07:53:59 51°14.192 2°53.711 245.2 10.9 242 11.7
2007-12-04 07:54:05 51°14.183 2°53.686 242.9 11.1 242 11.9
2007-12-04 07:54:09 51°14.178 2°53.669 243.6 11 242 12
2007-12-04 07:54:15 51°14.168 2°53.644 242.9 11.1 238 12.2
2007-12-04 07:54:20 51°14.161 2°53.622 242.7 11 241 12
2007-12-04 07:54:24 51°14.155 2°53.605 243.5 11.1 240 12.3
2007-12-04 07:54:29 51°14.146 2°53.584 241.8 11.3 239 12.2
2007-12-04 07:54:34 51°14.14 2°53.562 243.9 10.9 243 12.3
2007-12-04 07:54:40 51°14.13 2°53.537 243 11.1 238 12.1
2007-12-04 07:54:44 51°14.126 2°53.519 243.1 11 245 12.3
2007-12-04 07:54:49 51°14.117 2°53.499 243.1 11.2 236 12.2
2007-12-04 07:54:54 51°14.11 2°53.476 243.1 11.2 242 12.1
2007-12-04 07:55:00 51°14.101 2°53.45 243.4 11.1 241 11.7
2007-12-04 07:55:04 51°14.094 2°53.434 242.1 11.2 242 12
2007-12-04 07:55:09 51°14.088 2°53.411 243.6 11.3 243 11.9
2007-12-04 07:55:13 51°14.08 2°53.395 242.6 11.2 244 12.1
2007-12-04 07:55:19 51°14.073 2°53.368 244.6 11.1 241 12.2
2007-12-04 07:55:25 51°14.063 2°53.342 242.2 11.3 243 12.4
2007-12-04 07:55:29 51°14.058 2°53.325 243.9 11.2 237 12.1
2007-12-04 07:55:34 51°14.049 2°53.304 241.6 11.4 245 12.3
2007-12-04 07:55:39 51°14.042 2°53.281 243.8 11.3 238 12.5
2007-12-04 07:55:44 51°14.035 2°53.259 243.4 11.2 244 12.4
2007-12-04 07:55:49 51°14.027 2°53.238 242.5 11.3 239 12.5
2007-12-04 07:55:54 51°14.019 2°53.216 242.7 11.2 244 12.6
2007-12-04 07:55:59 51°14.011 2°53.194 243 11.5 235 12.5
2007-12-04 07:56:04 51°14.004 2°53.172 242.2 11.3 246 12.6
2007-12-04 07:56:09 51°13.995 2°53.152 242.5 11.2 232 12.5
2007-12-04 07:56:14 51°13.988 2°53.13 241.2 11.5 244 12.5
2007-12-04 07:56:20 51°13.978 2°53.105 243.1 11 235 12.4
2007-12-04 07:56:25 51°13.968 2°53.085 239.3 11.4 234 12.2
2007-12-04 07:56:29 51°13.962 2°53.067 239.7 11.2 240 12.5
2007-12-04 07:56:34 51°13.952 2°53.049 238.3 11.5 228 12.2
2007-12-04 07:56:40 51°13.943 2°53.022 238 11.2 241 12.3
2007-12-04 07:56:45 51°13.932 2°53.004 238 11.2 230 12.5
2007-12-04 07:56:49 51°13.927 2°52.986 238.5 11.2 241 12.6
2007-12-04 07:56:54 51°13.916 2°52.967 237.2 11.5 228 12.6
2007-12-04 07:56:59 51°13.909 2°52.945 237.8 11.1 241 12.8
2007-12-04 07:57:05 51°13.896 2°52.924 236.7 11.6 225 12.7
2007-12-04 07:57:09 51°13.89 2°52.905 235.1 11.5 241 13
2007-12-04 07:57:14 51°13.879 2°52.887 237.8 11.2 225 12.8
2007-12-04 07:57:19 51°13.871 2°52.866 235.1 11.3 236 12.6
2007-12-04 07:57:25 51°13.858 2°52.844 234.2 11.4 229 12.8
2007-12-04 07:57:29 51°13.852 2°52.827 235.8 11.1 238 12.7
2007-12-04 07:57:34 51°13.84 2°52.81 233 11.4 228 12.5
2007-12-04 07:57:39 51°13.833 2°52.787 235.5 11.2 234 12.4
2007-12-04 07:57:45 51°13.82 2°52.766 233.7 11.2 230 12.6
2007-12-04 07:57:49 51°13.811 2°52.752 232.8 11.2 228 12.5
2007-12-04 07:57:54 51°13.802 2°52.731 234.3 11.1 233 12.5
2007-12-04 07:57:59 51°13.791 2°52.714 232.2 11.3 228 12.5
2007-12-04 07:58:04 51°13.783 2°52.693 234.4 11 236 12.4
2007-12-04 07:58:09 51°13.772 2°52.675 235.1 11.4 227 12.7
2007-12-04 07:58:13 51°13.765 2°52.658 234.7 11.3 239 12.6
2007-12-04 07:58:19 51°13.753 2°52.635 236.3 11.1 228 12.8
2007-12-04 07:58:24 51°13.745 2°52.614 234.4 11.4 233 12.7
2007-12-04 07:58:29 51°13.734 2°52.595 234.7 11.2 233 12.8
2007-12-04 07:58:35 51°13.723 2°52.573 236.1 11.1 225 12.7
2007-12-04 07:58:39 51°13.715 2°52.557 232.9 11.5 233 12.3
2007-12-04 07:58:44 51°13.706 2°52.537 234.2 11.1 234 12.7
2007-12-04 07:58:49 51°13.695 2°52.519 235.1 11.2 226 12.3
2007-12-04 07:58:55 51°13.685 2°52.494 232.8 11.2 240 12.6
2007-12-04 07:58:59 51°13.676 2°52.479 235.8 11.5 224 12.1
2007-12-04 07:59:04 51°13.667 2°52.459 234 11.1 239 12.3
2007-12-04 07:59:09 51°13.658 2°52.44 236.3 10.8 230 12.6
2007-12-04 07:59:13 51°13.649 2°52.426 234.4 11.5 230 13
2007-12-04 07:59:19 51°13.639 2°52.401 236.6 10.7 234 12.5
2007-12-04 07:59:25 51°13.627 2°52.379 235.6 11.2 229 12.3
2007-12-04 07:59:29 51°13.619 2°52.363 234.5 11.3 237 12.9
2007-12-04 07:59:34 51°13.611 2°52.342 238.8 10.7 232 12.7
2007-12-04 07:59:39 51°13.6 2°52.324 233.9 11.3 230 12.8
2007-12-04 07:59:45 51°13.591 2°52.299 236.1 11.1 237 12.8
2007-12-04 07:59:49 51°13.582 2°52.285 234.5 11.2 226 12.8
2007-12-04 07:59:55 51°13.572 2°52.26 233.7 11.2 237 12.7
2007-12-04 07:59:59 51°13.562 2°52.247 233.7 11.3 230 12.8
2007-12-04 08:00:05 51°13.551 2°52.223 235.1 11.3 231 12.9
2007-12-04 08:00:09 51°13.543 2°52.208 234.7 10.9 231 12.8
2007-12-04 08:00:15 51°13.533 2°52.185 234.5 10.7 233 12.4
2007-12-04 08:00:19 51°13.524 2°52.171 233.7 11.3 229 12.8
2007-12-04 08:00:24 51°13.515 2°52.151 235.3 10.7 235 12.6
2007-12-04 08:00:29 51°13.505 2°52.134 235.1 10.8 226 12.5
2007-12-04 08:00:34 51°13.496 2°52.115 233.2 11.1 233 12.8
2007-12-04 08:00:39 51°13.487 2°52.095 236.3 10.9 231 12.6
2007-12-04 08:00:44 51°13.477 2°52.077 235 10.6 231 12.7
2007-12-04 08:00:49 51°13.468 2°52.059 233.8 10.8 232 12.6
2007-12-04 08:00:53 51°13.459 2°52.045 232.9 11 230 12.6
2007-12-04 08:00:59 51°13.449 2°52.021 234.9 10.7 230 12.5
2007-12-04 08:01:04 51°13.439 2°52.004 233 10.9 233 12.6
2007-12-04 08:01:09 51°13.43 2°51.983 236 10.9 235 12.9
2007-12-04 08:01:14 51°13.42 2°51.966 233.3 10.9 230 12.7
2007-12-04 08:01:20 51°13.41 2°51.942 234.6 10.8 235 12.7
2007-12-04 08:01:24 51°13.4 2°51.929 233.7 11.3 225 12.7
2007-12-04 08:01:29 51°13.393 2°51.908 234.8 10.7 242 12.8
2007-12-04 08:01:34 51°13.381 2°51.892 234 11.2 225 12.7
2007-12-04 08:01:40 51°13.373 2°51.868 234.7 10.6 239 12.7
2007-12-04 08:01:44 51°13.364 2°51.856 235.5 10.4 225 12.8
2007-12-04 08:01:49 51°13.356 2°51.836 233 10.3 236 12.4
2007-12-04 08:01:54 51°13.347 2°51.82 235.9 9.9 229 12.5
2007-12-04 08:01:59 51°13.339 2°51.802 235.1 9.8 234 12.7
2007-12-04 08:02:05 51°13.329 2°51.783 235.2 9.5 233 12.8
2007-12-04 08:02:09 51°13.323 2°51.769 236.2 9.3 233 12.7
2007-12-04 08:02:14 51°13.315 2°51.753 235.8 9 237 12.9
2007-12-04 08:02:19 51°13.308 2°51.739 235.8 8.5 229 12.6
2007-12-04 08:02:25 51°13.301 2°51.722 236.3 7.6 236 12.4
2007-12-04 08:02:29 51°13.295 2°51.712 236.5 7.3 230 12.5
2007-12-04 08:02:34 51°13.291 2°51.699 237.3 6.7 239 12.6
2007-12-04 08:02:39 51°13.283 2°51.69 236.8 6.3 226 12.8
2007-12-04 08:02:44 51°13.28 2°51.678 237.2 5.8 226 12.3
2007-12-04 08:02:49 51°13.274 2°51.67 234.6 5.5 237 12.4
2007-12-04 08:02:55 51°13.267 2°51.661 234.7 5.5 218 12.2
2007-12-04 08:02:59 51°13.264 2°51.652 234.4 5.4 234 12.3
2007-12-04 08:03:04 51°13.258 2°51.644 233.8 5.5 225 12.5
2007-12-04 08:03:09 51°13.254 2°51.634 235.7 5.5 231 12.5
2007-12-04 08:03:15 51°13.247 2°51.623 234.2 5.7 230 12.6
2007-12-04 08:03:19 51°13.243 2°51.616 233.8 5.9 231 12.9
2007-12-04 08:03:24 51°13.237 2°51.605 235.1 6.4 224 12.8
2007-12-04 08:03:29 51°13.231 2°51.594 234.4 6.6 233 13
2007-12-04 08:03:34 51°13.224 2°51.583 234.8 7 221 12.9
2007-12-04 08:03:39 51°13.219 2°51.57 234.4 7 234 12.4
2007-12-04 08:03:44 51°13.212 2°51.56 233.7 6.7 230 12.6
2007-12-04 08:03:49 51°13.207 2°51.549 235.5 6.2 233 12.7
2007-12-04 08:03:53 51°13.202 2°51.541 236.2 5.8 229 12.6
2007-12-04 08:03:59 51°13.198 2°51.529 240.2 5.2 240 12.6
2007-12-04 08:04:05 51°13.194 2°51.518 242.3 4.7 240 12.6
2007-12-04 08:04:09 51°13.192 2°51.511 246.8 4.3 249 12.6
2007-12-04 08:04:14 51°13.19 2°51.504 250.4 3.7 251 12.6
2007-12-04 08:04:19 51°13.189 2°51.496 253.5 3.4 254 12.6
2007-12-04 08:04:25 51°13.188 2°51.488 258.3 3.2 262 12.8
2007-12-04 08:04:29 51°13.188 2°51.483 262 3 265 12.6
2007-12-04 08:04:34 51°13.188 2°51.476 265.8 2.8 285 12.5
2007-12-04 08:04:39 51°13.188 2°51.47 268.4 2.6 269 12.5
2007-12-04 08:04:44 51°13.189 2°51.465 272.6 2.8 295 12.3
2007-12-04 08:04:49 51°13.19 2°51.459 277.9 2.9 278 12.6
2007-12-04 08:04:54 51°13.192 2°51.453 283.4 2.9 299 12.4
2007-12-04 08:05:00 51°13.195 2°51.447 289.4 3 306 12.4
2007-12-04 08:05:05 51°13.198 2°51.442 295.5 3.1 314 12.5
2007-12-04 08:05:09 51°13.201 2°51.437 299.7 3.4 312 12.4
2007-12-04 08:05:14 51°13.204 2°51.432 303.3 3.7 320 12.8
2007-12-04 08:05:20 51°13.209 2°51.424 305.5 4 312 13
2007-12-04 08:05:25 51°13.213 2°51.419 307.7 4.2 319 12.9
2007-12-04 08:05:29 51°13.217 2°51.414 309 4.3 319 12.7
2007-12-04 08:05:34 51°13.221 2°51.406 308 4.7 318 12.7
2007-12-04 08:05:39 51°13.226 2°51.399 306.9 4.8 314 12.9
2007-12-04 08:05:45 51°13.232 2°51.391 306.5 4.9 315 12.5
2007-12-04 08:05:49 51°13.236 2°51.384 306.8 5.1 317 12.5
2007-12-04 08:05:54 51°13.241 2°51.376 306.4 5.4 317 12.7
2007-12-04 08:06:00 51°13.249 2°51.367 308.7 5.5 323 12.9
2007-12-04 08:06:05 51°13.256 2°51.361 315 5.6 332 13
2007-12-04 08:06:09 51°13.262 2°51.357 322.7 5.8 338 13.1
2007-12-04 08:06:14 51°13.27 2°51.354 331.6 5.7 349 13
2007-12-04 08:06:20 51°13.28 2°51.353 341 5.9 355 13.1
2007-12-04 08:06:25 51°13.288 2°51.353 348.3 6.2 -999 13.2
2007-12-04 08:06:29 51°13.296 2°51.354 353.2 6.4 2 13.1
2007-12-04 08:06:34 51°13.305 2°51.355 356.7 6.6 5 12.9
2007-12-04 08:06:39 51°13.314 2°51.357 359.9 6.8 8 13.2
2007-12-04 08:06:44 51°13.324 2°51.359 2.6 7 8 13.3
2007-12-04 08:06:49 51°13.334 2°51.362 3.6 7.2 9 13.3
2007-12-04 08:06:53 51°13.341 2°51.365 4 7.2 12 13.2
2007-12-04 08:06:59 51°13.353 2°51.368 4.3 7.1 10 13.1
2007-12-04 08:07:04 51°13.363 2°51.371 4.4 6.9 12 12.9
2007-12-04 08:07:09 51°13.372 2°51.375 5.1 7 11 13.1
2007-12-04 08:07:15 51°13.384 2°51.378 5.6 7.3 10 13.2
2007-12-04 08:07:20 51°13.394 2°51.381 4.3 7.3 9 13.6
2007-12-04 08:07:25 51°13.403 2°51.384 2.1 6.8 10 13.7
2007-12-04 08:07:29 51°13.41 2°51.386 1 6.3 11 13.4
2007-12-04 08:07:34 51°13.417 2°51.388 0.4 5.3 12 13.2
2007-12-04 08:07:39 51°13.424 2°51.391 359.8 4.6 15 13.2
2007-12-04 08:07:44 51°13.43 2°51.393 359.2 4 16 13.5
2007-12-04 08:07:49 51°13.435 2°51.396 358.8 4.1 17 13.6
2007-12-04 08:07:54 51°13.44 2°51.398 358.8 3.7 19 13.6
2007-12-04 08:08:00 51°13.445 2°51.401 358.5 3.4 20 13.6
2007-12-04 08:08:04 51°13.448 2°51.403 357.8 3.1 20 13.7
2007-12-04 08:08:09 51°13.452 2°51.406 358.6 3 26 14
2007-12-04 08:08:14 51°13.455 2°51.409 -999 2.7 31 14.1
2007-12-04 08:08:19 51°13.457 2°51.412 1.1 2.3 33 14.1
2007-12-04 08:08:24 51°13.46 2°51.415 4 2.2 38 13.9
2007-12-04 08:08:29 51°13.462 2°51.418 5.6 2.3 45 13.9
2007-12-04 08:08:34 51°13.464 2°51.421 6.5 2 42 13.8
2007-12-04 08:08:39 51°13.466 2°51.425 7.9 2.1 49 13.9
2007-12-04 08:08:44 51°13.468 2°51.428 9.2 2 45 13.9
2007-12-04 08:08:49 51°13.47 2°51.431 10.6 1.9 50 13.7
2007-12-04 08:08:53 51°13.471 2°51.434 11.6 1.7 54 13.6
2007-12-04 08:08:59 51°13.473 2°51.438 13 1.9 59 13.7
2007-12-04 08:09:04 51°13.474 2°51.441 15.4 1.9 59 13.6
2007-12-04 08:09:09 51°13.476 2°51.444 17 1.7 56 13.7
2007-12-04 08:09:15 51°13.477 2°51.448 19.3 1.9 63 13.7
2007-12-04 08:09:19 51°13.478 2°51.451 20.3 1.7 59 13.7
2007-12-04 08:09:24 51°13.479 2°51.454 21.9 1.9 64 13.6
2007-12-04 08:09:29 51°13.48 2°51.458 22.9 1.7 61 13.6
2007-12-04 08:09:34 51°13.482 2°51.462 24.4 1.8 65 13.5
2007-12-04 08:09:39 51°13.483 2°51.465 25.6 1.7 61 13.5
2007-12-04 08:09:44 51°13.484 2°51.469 26.2 1.8 62 13.6
2007-12-04 08:09:49 51°13.485 2°51.472 27.4 1.8 67 13.6
2007-12-04 08:09:53 51°13.486 2°51.475 28.2 1.7 61 13.5
2007-12-04 08:09:59 51°13.487 2°51.48 28.3 1.6 61 13.5
2007-12-04 08:10:04 51°13.488 2°51.484 29.7 1.9 69 13.6
2007-12-04 08:10:09 51°13.489 2°51.487 30.5 1.9 70 13.7
2007-12-04 08:10:14 51°13.49 2°51.49 30.8 1.9 69 13.7
2007-12-04 08:10:20 51°13.491 2°51.495 31.2 1.7 65 13.7
2007-12-04 08:10:24 51°13.491 2°51.498 31.9 1.8 72 13.7
2007-12-04 08:10:29 51°13.492 2°51.502 33 1.7 67 13.6
2007-12-04 08:10:34 51°13.493 2°51.506 33.9 1.9 75 13.7
2007-12-04 08:10:40 51°13.494 2°51.51 35.2 1.7 67 13.6
2007-12-04 08:10:44 51°13.495 2°51.513 35.2 1.8 74 13.6
2007-12-04 08:10:49 51°13.496 2°51.516 36.4 1.6 66 13.6
2007-12-04 08:10:54 51°13.496 2°51.52 36.7 1.6 71 13.3
2007-12-04 08:10:59 51°13.497 2°51.523 37.7 1.6 62 13.4
2007-12-04 08:11:05 51°13.498 2°51.528 38.8 1.8 76 13.5
2007-12-04 08:11:09 51°13.499 2°51.53 38.9 1.5 62 13.4
2007-12-04 08:11:14 51°13.499 2°51.534 39.3 1.6 67 13.4
2007-12-04 08:11:19 51°13.5 2°51.538 40.3 1.9 80 13.6
2007-12-04 08:11:25 51°13.501 2°51.542 40.3 1.6 67 13.5
2007-12-04 08:11:29 51°13.501 2°51.545 40.1 1.9 80 13.6
2007-12-04 08:11:34 51°13.502 2°51.548 41.3 1.7 75 13.7
2007-12-04 08:11:39 51°13.503 2°51.552 40.9 1.6 70 13.7
2007-12-04 08:11:44 51°13.503 2°51.555 41.6 1.6 70 13.7
2007-12-04 08:11:49 51°13.504 2°51.56 42 1.5 65 13.7
2007-12-04 08:11:55 51°13.505 2°51.564 42.5 1.8 79 13.7
2007-12-04 08:11:59 51°13.505 2°51.566 43.1 1.7 76 13.5
2007-12-04 08:12:04 51°13.506 2°51.57 42.7 1.7 76 13.4
2007-12-04 08:12:09 51°13.507 2°51.573 43.8 1.6 71 13.2
2007-12-04 08:12:15 51°13.507 2°51.577 43.8 1.5 67 13.1
2007-12-04 08:12:19 51°13.507 2°51.58 44.7 1.8 76 13.3
2007-12-04 08:12:24 51°13.508 2°51.584 44.6 1.7 74 13.6
2007-12-04 08:12:29 51°13.509 2°51.587 44.8 1.6 74 13.5
2007-12-04 08:12:35 51°13.509 2°51.591 43.8 1.4 67 13.4
2007-12-04 08:12:39 51°13.51 2°51.594 44.8 1.9 88 13.5
2007-12-04 08:12:44 51°13.511 2°51.597 44.8 1.4 50 13.5
2007-12-04 08:12:49 51°13.511 2°51.602 44.8 2.1 89 13.8
2007-12-04 08:12:53 51°13.511 2°51.603 44.9 1.4 62 13.9
2007-12-04 08:12:59 51°13.512 2°51.608 44.3 1.8 90 13.8
2007-12-04 08:13:05 51°13.513 2°51.611 44.9 1.4 66 13.6
2007-12-04 08:13:09 51°13.512 2°51.615 45.7 2 91 13.8
2007-12-04 08:13:14 51°13.514 2°51.617 45.5 1.5 68 13.5
2007-12-04 08:13:19 51°13.514 2°51.621 44.6 1.4 77 13.4
2007-12-04 08:13:25 51°13.514 2°51.625 45.2 1.5 82 13.4
2007-12-04 08:13:29 51°13.515 2°51.627 45.1 1.5 79 13.5
2007-12-04 08:13:34 51°13.515 2°51.631 45.7 1.5 77 13.5
2007-12-04 08:13:39 51°13.515 2°51.634 45.3 1.4 74 13.6
2007-12-04 08:13:44 51°13.516 2°51.638 45.1 1.9 89 13.5
2007-12-04 08:13:49 51°13.517 2°51.641 45.1 1.5 74 13.5
2007-12-04 08:13:54 51°13.517 2°51.645 45.3 1.7 83 13.4
2007-12-04 08:14:00 51°13.517 2°51.649 45.8 1.6 79 13.5
2007-12-04 08:14:05 51°13.518 2°51.652 46.2 1.7 80 13.7
2007-12-04 08:14:09 51°13.518 2°51.654 46 1.4 78 13.7
2007-12-04 08:14:14 51°13.519 2°51.658 45.9 1.3 64 13.4
2007-12-04 08:14:20 51°13.519 2°51.662 47.1 1.6 85 13.5
2007-12-04 08:14:25 51°13.519 2°51.665 47.8 1.4 76 13.5
2007-12-04 08:14:29 51°13.519 2°51.669 47.3 1.7 88 13.5
2007-12-04 08:14:34 51°13.52 2°51.672 47.5 1.6 84 13.5
2007-12-04 08:14:39 51°13.521 2°51.675 48 1.6 82 13.4
2007-12-04 08:14:45 51°13.521 2°51.68 48.6 1.6 85 13.3
2007-12-04 08:14:49 51°13.522 2°51.682 49.3 1.4 68 13.3
2007-12-04 08:14:54 51°13.522 2°51.686 49.3 1.5 74 13.5
2007-12-04 08:15:00 51°13.522 2°51.69 49.8 1.8 83 13.5
2007-12-04 08:15:05 51°13.523 2°51.693 49.4 1.6 76 13.3
2007-12-04 08:15:09 51°13.523 2°51.696 50.2 1.6 75 13.5
2007-12-04 08:15:14 51°13.524 2°51.701 51.3 2.2 77 13.5
2007-12-04 08:15:19 51°13.526 2°51.705 52.4 2.5 64 13.5
2007-12-04 08:15:25 51°13.527 2°51.713 55.5 3 68 13.5
2007-12-04 08:15:29 51°13.529 2°51.718 59.4 3.4 66 13.5
2007-12-04 08:15:34 51°13.531 2°51.726 65 4 70 13.4
2007-12-04 08:15:39 51°13.533 2°51.735 71.6 4.4 71 13.5
2007-12-04 08:15:45 51°13.534 2°51.747 78.6 4.6 80 13.4
2007-12-04 08:15:49 51°13.535 2°51.755 84.9 4.8 79 13.4
2007-12-04 08:15:53 51°13.536 2°51.764 91.5 5 91 13.3
2007-12-04 08:15:59 51°13.536 2°51.778 99.4 5.2 88 13.4
2007-12-04 08:16:04 51°13.535 2°51.789 105.3 5.1 103 13.2
2007-12-04 08:16:09 51°13.533 2°51.8 113.9 5.2 105 13.2
2007-12-04 08:16:15 51°13.529 2°51.812 123 5 116 13.3
2007-12-04 08:16:19 51°13.527 2°51.82 131 4.8 125 13.1
2007-12-04 08:16:24 51°13.522 2°51.828 140.6 5 129 13.2
2007-12-04 08:16:29 51°13.517 2°51.834 148.4 4.6 141 13.2
2007-12-04 08:16:35 51°13.511 2°51.842 156.4 4.6 147 13
2007-12-04 08:16:39 51°13.506 2°51.845 165.6 4.4 155 13.1
2007-12-04 08:16:44 51°13.5 2°51.848 173.4 4.4 168 13.1
2007-12-04 08:16:49 51°13.494 2°51.849 183.2 4.1 172 13.2
2007-12-04 08:16:53 51°13.49 2°51.85 189.9 4 184 13.1
2007-12-04 08:16:59 51°13.484 2°51.848 199.1 3.9 189 13
2007-12-04 08:17:05 51°13.477 2°51.845 206.6 3.8 202 13.1
2007-12-04 08:17:09 51°13.473 2°51.842 214 4 208 13.1
2007-12-04 08:17:15 51°13.468 2°51.836 220.2 4.2 214 13.2
2007-12-04 08:17:20 51°13.463 2°51.83 223.3 4.3 217 13.2
2007-12-04 08:17:25 51°13.457 2°51.825 225.3 4.6 212 13.1
2007-12-04 08:17:29 51°13.453 2°51.82 224.4 4.7 219 13.1
2007-12-04 08:17:34 51°13.448 2°51.814 225 4.9 214 13.2
2007-12-04 08:17:39 51°13.442 2°51.807 224.6 5.1 219 13.2
2007-12-04 08:17:45 51°13.435 2°51.8 223.8 5.3 209 13
2007-12-04 08:17:49 51°13.43 2°51.793 223.5 5.3 220 13
2007-12-04 08:17:54 51°13.423 2°51.787 222.6 5.6 210 13
2007-12-04 08:18:00 51°13.416 2°51.777 223.1 5.6 218 13
2007-12-04 08:18:05 51°13.409 2°51.771 222 5.9 212 13.2
2007-12-04 08:18:09 51°13.405 2°51.764 223.5 5.7 220 13
2007-12-04 08:18:14 51°13.397 2°51.759 221.5 5.9 210 13
2007-12-04 08:18:20 51°13.39 2°51.748 222.7 5.8 218 12.8
2007-12-04 08:18:25 51°13.382 2°51.742 221.1 5.9 212 13.1
2007-12-04 08:18:29 51°13.378 2°51.734 222.9 5.9 222 12.7
2007-12-04 08:18:34 51°13.37 2°51.729 220.6 6 221 12.8
2007-12-04 08:18:40 51°13.363 2°51.719 225 5.6 214 12.6
2007-12-04 08:18:44 51°13.358 2°51.712 223.3 6 219 12.5
2007-12-04 08:18:49 51°13.351 2°51.704 225.6 5.8 220 13.1
2007-12-04 08:18:55 51°13.343 2°51.695 227.2 6 211 12.7
2007-12-04 08:19:00 51°13.338 2°51.685 226.2 5.9 227 12.6
2007-12-04 08:19:04 51°13.333 2°51.68 227.2 5.7 221 12.8
2007-12-04 08:19:09 51°13.326 2°51.671 226.4 6 219 12.7
2007-12-04 08:19:14 51°13.321 2°51.662 227.2 5.7 224 12.7
2007-12-04 08:19:20 51°13.313 2°51.653 226.7 6 217 12.7
2007-12-04 08:19:24 51°13.309 2°51.644 228 5.9 226 12.8
2007-12-04 08:19:29 51°13.302 2°51.636 227.7 6.1 218 12.8
2007-12-04 08:19:34 51°13.296 2°51.626 228.3 5.9 229 12.8
2007-12-04 08:19:40 51°13.288 2°51.617 228.8 6.3 216 12.9
2007-12-04 08:19:44 51°13.285 2°51.607 230.8 5.9 235 12.8
2007-12-04 08:19:49 51°13.278 2°51.599 231.1 6.1 218 12.9
2007-12-04 08:19:53 51°13.274 2°51.59 233.6 6 235 12.8
2007-12-04 08:19:59 51°13.267 2°51.579 233.4 6.1 225 12.8
2007-12-04 08:20:05 51°13.261 2°51.566 234 5.9 234 12.6
2007-12-04 08:20:09 51°13.256 2°51.559 234.6 5.9 226 12.5
2007-12-04 08:20:14 51°13.252 2°51.549 235 5.7 233 12.6
2007-12-04 08:20:19 51°13.247 2°51.54 236 5.2 233 12.7
2007-12-04 08:20:25 51°13.242 2°51.53 236.6 5 227 12.6
2007-12-04 08:20:29 51°13.24 2°51.522 239.9 4.4 249 12.6
2007-12-04 08:20:34 51°13.237 2°51.514 245.3 4 239 12.6
2007-12-04 08:20:39 51°13.236 2°51.506 250 3.7 255 12.7
2007-12-04 08:20:44 51°13.235 2°51.498 255.4 3.5 251 12.4
2007-12-04 08:20:49 51°13.234 2°51.491 259.6 3.3 277 12.3
2007-12-04 08:20:54 51°13.234 2°51.485 263.9 3.1 268 12.5
2007-12-04 08:21:00 51°13.235 2°51.477 267.8 3 284 12.6
2007-12-04 08:21:05 51°13.236 2°51.471 273.8 2.7 279 12.5
2007-12-04 08:21:09 51°13.237 2°51.466 277.8 3 296 12.8
2007-12-04 08:21:14 51°13.238 2°51.459 280.6 3.1 281 13.1
2007-12-04 08:21:20 51°13.241 2°51.452 283.8 3.2 296 12.7
2007-12-04 08:21:25 51°13.243 2°51.445 288.3 3.3 297 12.6
2007-12-04 08:21:29 51°13.245 2°51.44 290.4 3.5 303 12.5
2007-12-04 08:21:34 51°13.247 2°51.433 290.6 3.6 299 12.5
2007-12-04 08:21:39 51°13.251 2°51.426 291.4 3.8 305 12.7
2007-12-04 08:21:45 51°13.254 2°51.417 292.4 3.9 301 12.9
2007-12-04 08:21:49 51°13.257 2°51.411 293.6 4.2 309 12.9
2007-12-04 08:21:54 51°13.26 2°51.403 296.1 4.2 310 12.9
2007-12-04 08:22:00 51°13.265 2°51.395 298.2 4.4 312 13
2007-12-04 08:22:05 51°13.269 2°51.387 300.2 4.4 311 13.2
2007-12-04 08:22:09 51°13.273 2°51.382 302.4 4.4 316 13.3
2007-12-04 08:22:14 51°13.277 2°51.376 304.5 4.2 318 13.2
2007-12-04 08:22:20 51°13.282 2°51.369 304.9 4.1 317 13.4
2007-12-04 08:22:25 51°13.286 2°51.363 305 4.1 315 13.3
2007-12-04 08:22:29 51°13.289 2°51.359 305.3 4.1 320 13
2007-12-04 08:22:34 51°13.294 2°51.352 305 4 317 12.6
2007-12-04 08:22:39 51°13.298 2°51.346 304.5 4.1 321 12.8
2007-12-04 08:22:45 51°13.304 2°51.338 305.5 4.3 320 13
2007-12-04 08:22:49 51°13.307 2°51.333 307.7 4.5 323 13.1
2007-12-04 08:22:53 51°13.312 2°51.329 312 4.6 328 13.1
2007-12-04 08:22:59 51°13.319 2°51.323 316.7 4.7 331 13.5
2007-12-04 08:23:04 51°13.324 2°51.318 321.1 4.9 332 13.7
2007-12-04 08:23:09 51°13.331 2°51.314 324.9 4.9 336 13.8
2007-12-04 08:23:15 51°13.338 2°51.31 328.7 4.7 343 13.5
2007-12-04 08:23:19 51°13.343 2°51.309 332.4 4.7 348 13.3
2007-12-04 08:23:24 51°13.35 2°51.307 336.7 4.9 353 13.2
2007-12-04 08:23:29 51°13.357 2°51.306 341.1 5.2 355 13.4
2007-12-04 08:23:35 51°13.366 2°51.305 344.7 5.4 357 13.7
2007-12-04 08:23:39 51°13.371 2°51.305 347.5 5.3 359 13.6
2007-12-04 08:23:44 51°13.379 2°51.305 348.5 5.1 1 13.6
2007-12-04 08:23:49 51°13.386 2°51.306 349.4 5 3 13.5
2007-12-04 08:23:53 51°13.391 2°51.306 350.4 4.7 4 13.4
2007-12-04 08:23:59 51°13.398 2°51.308 350.6 4.1 8 13.5
2007-12-04 08:24:05 51°13.404 2°51.31 350.7 3.9 11 13.7
2007-12-04 08:24:09 51°13.408 2°51.311 351.4 3.6 13 13.7
2007-12-04 08:24:14 51°13.413 2°51.313 353.4 3.2 18 13.6
2007-12-04 08:24:20 51°13.417 2°51.317 356.8 3 22 13.8
2007-12-04 08:24:25 51°13.421 2°51.319 0.5 2.7 26 13.8
2007-12-04 08:24:29 51°13.423 2°51.322 4.2 2.5 32 13.8
2007-12-04 08:24:34 51°13.426 2°51.325 7.9 2.3 36 13.9
2007-12-04 08:24:40 51°13.428 2°51.329 11 2 41 13.9
2007-12-04 08:24:45 51°13.43 2°51.332 14.5 2 53 13.8
2007-12-04 08:24:49 51°13.431 2°51.334 17.6 1.6 56 13.7
2007-12-04 08:24:54 51°13.432 2°51.337 20.7 1.4 58 13.6
2007-12-04 08:25:00 51°13.433 2°51.341 23.2 1.3 72 13.7
2007-12-04 08:25:05 51°13.434 2°51.344 27.4 1.5 80 13.6
2007-12-04 08:25:09 51°13.434 2°51.346 29.9 1.5 76 13.7
2007-12-04 08:25:14 51°13.434 2°51.349 33 1.9 87 13.7
2007-12-04 08:25:20 51°13.435 2°51.352 33.8 1.2 60 13.5
2007-12-04 08:25:25 51°13.435 2°51.356 37.3 1.5 81 13.4
2007-12-04 08:25:29 51°13.436 2°51.358 39.3 1.3 69 13.5
2007-12-04 08:25:35 51°13.437 2°51.362 41.3 1.5 76 -999
2007-12-04 08:25:41 51°13.437 2°51.365 43.2 1.4 68 -999
2007-12-04 08:25:46 51°13.438 2°51.369 44.7 1.5 69 -999
2007-12-04 08:25:52 51°13.439 2°51.372 45.2 1.4 69 -999
2007-12-04 08:25:57 51°13.439 2°51.376 47.9 1.5 70 -999
2007-12-04 08:26:03 51°13.44 2°51.38 48.6 1.5 72 -999
2007-12-04 08:26:08 51°13.44 2°51.383 49.4 1.6 73 -999
2007-12-04 08:26:13 51°13.441 2°51.387 50.1 1.6 74 13.1
2007-12-04 08:26:18 51°13.442 2°51.39 50.7 1.5 67 13.4
2007-12-04 08:26:23 51°13.442 2°51.394 52.5 1.7 84 13.3
2007-12-04 08:26:28 51°13.442 2°51.397 52.5 1.6 81 13.2
2007-12-04 08:26:33 51°13.443 2°51.4 54 1.5 73 4.6
2007-12-04 08:26:37 51°13.444 2°51.402 54.8 1.7 82 4.7
2007-12-04 08:26:42 51°13.444 2°51.405 54.5 1.5 67 13.7
2007-12-04 08:26:47 51°13.445 2°51.409 55.6 1.6 75 13.7
2007-12-04 08:26:52 51°13.446 2°51.412 55.6 1.6 66 13.7
2007-12-04 08:26:57 51°13.446 2°51.416 55.4 1.6 78 13.7
2007-12-04 08:27:01 51°13.446 2°51.419 55.7 1.5 65 13.8
2007-12-04 08:27:06 51°13.447 2°51.422 55 1.9 85 13.5
2007-12-04 08:27:11 51°13.448 2°51.425 55.8 1.5 60 13.6
2007-12-04 08:27:16 51°13.448 2°51.429 55 1.6 82 13.7
2007-12-04 08:27:21 51°13.449 2°51.431 55 1.5 61 13.8
2007-12-04 08:27:26 51°13.449 2°51.435 54.8 1.7 78 13.9
2007-12-04 08:27:30 51°13.45 2°51.438 54.5 1.8 80 13.6
2007-12-04 08:27:35 51°13.451 2°51.441 53.8 1.4 59 13.3
2007-12-04 08:27:40 51°13.451 2°51.445 54.6 1.6 73 13.6
2007-12-04 08:27:45 51°13.451 2°51.449 54.8 2 89 13.5
2007-12-04 08:27:49 51°13.452 2°51.45 53.4 1.5 68 13.3
2007-12-04 08:27:54 51°13.453 2°51.454 53.3 1.6 78 13.2
2007-12-04 08:27:59 51°13.453 2°51.457 53.7 1.5 66 13.6
2007-12-04 08:28:05 51°13.454 2°51.462 53.7 1.8 86 13.6
2007-12-04 08:28:09 51°13.455 2°51.464 52.9 1.3 55 13.6
2007-12-04 08:28:14 51°13.455 2°51.468 53.5 1.8 95 13.9
2007-12-04 08:28:19 51°13.456 2°51.47 54.1 1.6 68 13.7
2007-12-04 08:28:25 51°13.456 2°51.475 54.2 1.8 84 13.7
2007-12-04 08:28:29 51°13.457 2°51.477 54.9 1.7 74 13.8
2007-12-04 08:28:34 51°13.457 2°51.481 54.7 1.7 78 13.8
2007-12-04 08:28:40 51°13.458 2°51.485 55.4 1.6 68 13.6
2007-12-04 08:28:45 51°13.458 2°51.489 55.8 1.6 77 13.6
2007-12-04 08:28:49 51°13.459 2°51.491 56.2 1.5 70 13.6
2007-12-04 08:28:54 51°13.459 2°51.495 56.6 1.6 81 13.8
2007-12-04 08:29:00 51°13.459 2°51.499 56.7 1.7 89 13.6
2007-12-04 08:29:05 51°13.461 2°51.502 57.1 1.5 61 13.4
2007-12-04 08:29:09 51°13.46 2°51.505 58 1.6 77 13.5
2007-12-04 08:29:15 51°13.461 2°51.509 58 1.7 85 13.5
2007-12-04 08:29:19 51°13.462 2°51.511 58.1 1.5 72 13.3
2007-12-04 08:29:25 51°13.462 2°51.515 58.3 1.5 66 13.5
2007-12-04 08:29:29 51°13.463 2°51.518 58.3 1.8 88 13.5
2007-12-04 08:29:35 51°13.463 2°51.522 57.8 1.5 66 13.4
2007-12-04 08:29:39 51°13.463 2°51.525 57.3 1.6 82 13.5
2007-12-04 08:29:44 51°13.464 2°51.529 57.3 1.7 84 13.4
2007-12-04 08:29:49 51°13.464 2°51.532 56.3 1.6 75 13.4
2007-12-04 08:29:55 51°13.465 2°51.536 56.2 1.6 76 13.5
2007-12-04 08:29:59 51°13.465 2°51.539 55.7 1.5 76 13.6
2007-12-04 08:30:04 51°13.466 2°51.542 55.7 1.4 74 13.5
2007-12-04 08:30:09 51°13.466 2°51.546 56 1.7 87 13.7
2007-12-04 08:30:15 51°13.467 2°51.55 55.8 1.8 89 13.6
2007-12-04 08:30:20 51°13.468 2°51.552 54.1 1.4 63 13.3
2007-12-04 08:30:25 51°13.468 2°51.556 54.4 1.6 77 13.3
2007-12-04 08:30:29 51°13.468 2°51.559 54.8 1.7 76 13.4
2007-12-04 08:30:35 51°13.469 2°51.563 53.3 1.4 74 13.2
2007-12-04 08:30:40 51°13.47 2°51.566 53.1 1.4 71 13.3
2007-12-04 08:30:45 51°13.47 2°51.57 53.5 1.5 81 13.5
2007-12-04 08:30:49 51°13.47 2°51.572 53.6 1.5 82 13.3
2007-12-04 08:30:55 51°13.471 2°51.576 53.2 1.5 66 13.4
2007-12-04 08:31:00 51°13.471 2°51.579 53.9 1.6 84 13.5
2007-12-04 08:31:05 51°13.471 2°51.582 53.7 1.4 77 13.5
2007-12-04 08:31:09 51°13.472 2°51.585 53.5 1.7 87 13.6
2007-12-04 08:31:14 51°13.472 2°51.589 53.4 1.6 78 13.5
2007-12-04 08:31:20 51°13.473 2°51.593 53.9 1.6 79 13.4
2007-12-04 08:31:25 51°13.474 2°51.596 53.1 1.5 61 13.5
2007-12-04 08:31:29 51°13.474 2°51.599 52.9 1.7 82 13.6
2007-12-04 08:31:34 51°13.474 2°51.602 52.9 1.6 65 13.5
2007-12-04 08:31:39 51°13.475 2°51.606 52.3 1.6 76 13.4
2007-12-04 08:31:45 51°13.476 2°51.61 52.9 2 71 13.3
2007-12-04 08:31:49 51°13.476 2°51.614 52.5 2.3 73 13.5
2007-12-04 08:31:54 51°13.478 2°51.618 52.2 2.3 63 13.2
2007-12-04 08:31:59 51°13.479 2°51.625 52.3 2.6 59 13.3
2007-12-04 08:32:04 51°13.482 2°51.631 53.6 3.4 70 13.3
2007-12-04 08:32:09 51°13.485 2°51.637 52.7 3.8 55 13.1
2007-12-04 08:32:13 51°13.487 2°51.644 52 4.4 58 13.4
2007-12-04 08:32:19 51°13.492 2°51.654 51.6 4.7 53 13.5
2007-12-04 08:32:24 51°13.496 2°51.663 50.8 5.4 51 13.4
2007-12-04 08:32:29 51°13.501 2°51.674 49.7 5.9 52 13.3
2007-12-04 08:32:35 51°13.508 2°51.687 49.7 6.6 50 13.4
2007-12-04 08:32:40 51°13.514 2°51.7 49.7 7.2 54 13.3
2007-12-04 08:32:44 51°13.519 2°51.711 49.9 7.6 52 13.2
2007-12-04 08:32:49 51°13.526 2°51.725 52.8 8.2 51 13.2
2007-12-04 08:32:55 51°13.534 2°51.745 54.7 9.1 55 13.2
2007-12-04 08:33:00 51°13.542 2°51.763 55.1 9.8 58 13.3
2007-12-04 08:33:04 51°13.548 2°51.777 55.5 10.3 56 13.1
2007-12-04 08:33:09 51°13.556 2°51.797 57.5 10.5 57 12.9
2007-12-04 08:33:14 51°13.563 2°51.818 62.2 11.1 59 13.2
2007-12-04 08:33:20 51°13.572 2°51.845 63.1 11.7 64 13.2
2007-12-04 08:33:25 51°13.58 2°51.869 65.1 12.1 60 13.4
2007-12-04 08:33:29 51°13.585 2°51.889 66 12.4 69 13.5
2007-12-04 08:33:34 51°13.593 2°51.915 69 12.8 63 13.2
2007-12-04 08:33:40 51°13.602 2°51.946 68.1 13 65 13.1
2007-12-04 08:33:45 51°13.609 2°51.974 69.4 13.5 67 13.2
2007-12-04 08:33:49 51°13.617 2°51.994 67.3 13.6 60 13.3
2007-12-04 08:33:54 51°13.623 2°52.022 66.6 13.3 68 13.6
2007-12-04 08:34:00 51°13.634 2°52.054 69.1 13.8 64 13.3
2007-12-04 08:34:05 51°13.643 2°52.081 66.8 13.8 63 13.3
2007-12-04 08:34:09 51°13.65 2°52.102 65.8 13.7 62 13.2
2007-12-04 08:34:14 51°13.657 2°52.13 67.4 13.9 65 13.3
2007-12-04 08:34:20 51°13.668 2°52.163 65.6 13.9 65 13
2007-12-04 08:34:25 51°13.677 2°52.19 67.3 13.9 62 13.1
2007-12-04 08:34:29 51°13.685 2°52.211 64.7 13.7 60 13
2007-12-04 08:34:34 51°13.692 2°52.239 66.7 13.9 63 13
2007-12-04 08:34:40 51°13.704 2°52.271 64.5 14 60 12.8
2007-12-04 08:34:45 51°13.713 2°52.299 64.3 13.9 62 13.1
2007-12-04 08:34:49 51°13.721 2°52.319 62.7 13.7 58 12.9
2007-12-04 08:34:54 51°13.728 2°52.348 66.1 14 65 13
2007-12-04 08:35:00 51°13.742 2°52.378 63.8 13.9 57 13
2007-12-04 08:35:05 51°13.749 2°52.407 63.7 13.8 65 13.1
2007-12-04 08:35:09 51°13.757 2°52.427 64.2 13.9 59 13
2007-12-04 08:35:15 51°13.768 2°52.46 63.8 13.9 62 13
2007-12-04 08:35:20 51°13.777 2°52.487 64.4 13.9 60 13
2007-12-04 08:35:25 51°13.787 2°52.514 63.3 14 62 12.8
2007-12-04 08:35:29 51°13.795 2°52.534 62.2 14 58 12.7
2007-12-04 08:35:34 51°13.804 2°52.561 62.9 13.7 61 12.7
2007-12-04 08:35:40 51°13.815 2°52.593 63.7 13.9 64 12.6
2007-12-04 08:35:45 51°13.825 2°52.62 64.2 14 58 12.6
2007-12-04 08:35:49 51°13.832 2°52.641 63.1 13.6 62 12.6
2007-12-04 08:35:54 51°13.84 2°52.668 65.3 13.9 64 12.5
2007-12-04 08:35:59 51°13.851 2°52.695 64.2 14 59 12.5
2007-12-04 08:36:05 51°13.862 2°52.728 63.7 13.9 61 12.6
2007-12-04 08:36:09 51°13.869 2°52.749 64 13.8 62 12.7
2007-12-04 08:36:14 51°13.878 2°52.776 64.6 13.9 62 12.6
2007-12-04 08:36:19 51°13.888 2°52.802 62.9 13.9 61 12.7
2007-12-04 08:36:25 51°13.898 2°52.835 64.5 13.9 62 12.7
2007-12-04 08:36:29 51°13.906 2°52.856 63.5 13.5 60 12.5
2007-12-04 08:36:35 51°13.915 2°52.889 65.3 13.6 66 12.5
2007-12-04 08:36:39 51°13.924 2°52.908 63.9 13.7 58 12.5
2007-12-04 08:36:44 51°13.931 2°52.936 64.4 13.7 64 12.8
2007-12-04 08:36:49 51°13.942 2°52.961 63.7 13.4 61 12.5
2007-12-04 08:36:55 51°13.951 2°52.994 66.2 13.7 63 12.5
2007-12-04 08:36:59 51°13.96 2°53.014 64 13.6 57 12.6
2007-12-04 08:37:04 51°13.969 2°53.041 62.5 13.6 62 12.7
2007-12-04 08:37:09 51°13.978 2°53.067 62.8 13.6 58 12.6
2007-12-04 08:37:15 51°13.987 2°53.101 63.3 14.1 68 12.4
2007-12-04 08:37:19 51°13.998 2°53.119 62.2 13.7 54 12.2
2007-12-04 08:37:24 51°14.005 2°53.147 62.9 13.8 63 12.4
2007-12-04 08:37:29 51°14.017 2°53.171 60.9 13.8 52 12.5
2007-12-04 08:37:35 51°14.027 2°53.204 60.4 13.8 62 12.6
2007-12-04 08:37:40 51°14.04 2°53.228 60.4 13.7 53 12.4
2007-12-04 08:37:45 51°14.048 2°53.254 59.5 13.5 62 12.7
2007-12-04 08:37:49 51°14.056 2°53.274 62 13.5 59 12.4
2007-12-04 08:37:54 51°14.066 2°53.3 60.9 13.6 61 12.2
2007-12-04 08:38:00 51°14.076 2°53.332 62.3 13.7 61 11.9
2007-12-04 08:38:05 51°14.086 2°53.358 62.9 13.7 60 11.9
2007-12-04 08:38:09 51°14.094 2°53.379 62.1 13.6 58 11.6
2007-12-04 08:38:14 51°14.103 2°53.406 62.8 13.7 58 12
2007-12-04 08:38:19 51°14.114 2°53.431 60.2 13.7 58 12.1
2007-12-04 08:38:25 51°14.125 2°53.463 62.1 13.8 60 12.3
2007-12-04 08:38:29 51°14.134 2°53.483 60.8 13.7 57 12.3
2007-12-04 08:38:34 51°14.143 2°53.509 61 13.7 60 12
2007-12-04 08:38:39 51°14.153 2°53.535 61.2 13.8 56 12.1
2007-12-04 08:38:45 51°14.164 2°53.567 61.6 13.7 63 12.1
2007-12-04 08:38:49 51°14.173 2°53.587 62.4 13.8 59 12
2007-12-04 08:38:55 51°14.184 2°53.619 62.4 13.8 60 12
2007-12-04 08:39:00 51°14.194 2°53.644 61.4 13.5 58 11.9
2007-12-04 08:39:04 51°14.2 2°53.667 63.1 14 65 11.9
2007-12-04 08:39:09 51°14.212 2°53.691 61.9 13.9 52 11.9
2007-12-04 08:39:15 51°14.222 2°53.724 61.1 13.7 65 12.1
2007-12-04 08:39:20 51°14.233 2°53.748 62.4 13.7 56 12.1
2007-12-04 08:39:24 51°14.239 2°53.77 62.1 13.7 62 12.1
2007-12-04 08:39:29 51°14.251 2°53.795 61.3 13.8 55 11.8
2007-12-04 08:39:35 51°14.262 2°53.827 61.3 13.7 58 11.8
2007-12-04 08:39:40 51°14.272 2°53.852 60.8 13.6 59 12
2007-12-04 08:39:45 51°14.282 2°53.878 61.4 13.6 58 11.8
2007-12-04 08:39:49 51°14.29 2°53.898 60.4 13.7 57 11.6
2007-12-04 08:39:55 51°14.301 2°53.93 61.2 13.7 59 11.4
2007-12-04 08:40:00 51°14.312 2°53.955 60.9 13.6 57 11.5
2007-12-04 08:40:05 51°14.32 2°53.982 61.7 13.7 59 11.8
2007-12-04 08:40:09 51°14.33 2°54.001 59.9 13.6 55 11.8
2007-12-04 08:40:14 51°14.338 2°54.028 60.3 13.6 60 11.9
2007-12-04 08:40:20 51°14.351 2°54.057 59.5 13.6 57 12
2007-12-04 08:40:25 51°14.36 2°54.084 60.9 13.6 62 11.9
2007-12-04 08:40:29 51°14.369 2°54.104 60.7 13.7 55 11.7
2007-12-04 08:40:34 51°14.377 2°54.131 61.8 13.6 60 12
2007-12-04 08:40:40 51°14.39 2°54.161 61.4 13.4 60 12
2007-12-04 08:40:45 51°14.399 2°54.188 62.8 13.7 59 12
2007-12-04 08:40:49 51°14.407 2°54.208 60.8 13.6 58 12
2007-12-04 08:40:54 51°14.416 2°54.234 60.7 13.6 61 11.9
2007-12-04 08:40:59 51°14.426 2°54.26 62.1 13.8 60 11.9
2007-12-04 08:41:04 51°14.436 2°54.285 61 13.6 57 11.9
2007-12-04 08:41:09 51°14.445 2°54.312 61.3 13.6 61 12.2
2007-12-04 08:41:14 51°14.457 2°54.336 60.5 13.7 54 12.7
2007-12-04 08:41:19 51°14.466 2°54.363 59.7 13.8 58 13.7
2007-12-04 08:41:25 51°14.479 2°54.392 58.2 13.7 55 13.5
2007-12-04 08:41:30 51°14.49 2°54.417 57.3 13.5 55 13.1
2007-12-04 08:41:34 51°14.499 2°54.435 55.6 13.4 55 13.2
2007-12-04 08:41:39 51°14.509 2°54.461 56.3 13.5 54 12.8
2007-12-04 08:41:45 51°14.524 2°54.488 55.2 13.5 49 12.7
2007-12-04 08:41:49 51°14.531 2°54.51 55.4 13.7 57 12.9
2007-12-04 08:41:54 51°14.545 2°54.53 53.5 13.4 47 12.8
2007-12-04 08:41:59 51°14.556 2°54.554 51.4 13.7 49 13.1
2007-12-04 08:42:05 51°14.574 2°54.575 45 13.4 38 12.5
2007-12-04 08:42:09 51°14.584 2°54.592 43.5 13.3 41 12.8
2007-12-04 08:42:14 51°14.599 2°54.609 39.7 13.3 35 12.8
2007-12-04 08:42:20 51°14.618 2°54.627 34.8 13.2 32 12.4
2007-12-04 08:42:25 51°14.634 2°54.643 32.5 13.3 32 12.4
2007-12-04 08:42:29 51°14.647 2°54.653 29.4 13.1 24 12.3
2007-12-04 08:42:34 51°14.663 2°54.668 27.4 13.4 31 12.5
2007-12-04 08:42:40 51°14.683 2°54.682 27.1 13.2 22 12.3
2007-12-04 08:42:45 51°14.7 2°54.692 21.8 13.3 21 12.3
2007-12-04 08:42:49 51°14.714 2°54.699 19 13.1 18 12.3
2007-12-04 08:42:54 51°14.731 2°54.706 15.5 13 14 12
2007-12-04 08:43:00 51°14.752 2°54.715 14.4 13 15 11.7
2007-12-04 08:43:05 51°14.77 2°54.72 11.8 12.9 11 11.8
2007-12-04 08:43:09 51°14.784 2°54.724 8.9 12.9 10 12
2007-12-04 08:43:14 51°14.802 2°54.727 5.7 12.6 6 12.1
2007-12-04 08:43:20 51°14.823 2°54.731 4 12.7 6 12
2007-12-04 08:43:24 51°14.837 2°54.731 1.6 12.7 3 11.8
2007-12-04 08:43:29 51°14.854 2°54.733 0.3 12.6 4 12.2
2007-12-04 08:43:34 51°14.872 2°54.734 359.8 12.6 1 12
2007-12-04 08:43:40 51°14.893 2°54.734 358.9 12.8 1 11.8
2007-12-04 08:43:44 51°14.907 2°54.734 358.3 12.7 357 11.9
2007-12-04 08:43:49 51°14.925 2°54.731 353.6 12.5 353 11.8
2007-12-04 08:43:55 51°14.945 2°54.728 351.5 12.5 355 11.4
2007-12-04 08:44:00 51°14.962 2°54.723 350.3 12.3 351 11.1
2007-12-04 08:44:05 51°14.979 2°54.719 348.4 12.4 351 11.3
2007-12-04 08:44:09 51°14.993 2°54.715 347 12.5 350 11.2
2007-12-04 08:44:15 51°15.014 2°54.708 346.2 12.6 349 11.4
2007-12-04 08:44:20 51°15.03 2°54.703 345.9 12.6 349 11.2
2007-12-04 08:44:25 51°15.048 2°54.697 345.5 12.6 348 11.4
2007-12-04 08:44:29 51°15.061 2°54.693 345.4 12.5 348 11.5
2007-12-04 08:44:34 51°15.078 2°54.687 345 12.3 348 10.6
2007-12-04 08:44:40 51°15.098 2°54.681 345.3 12.3 349 10.5
2007-12-04 08:44:45 51°15.115 2°54.676 345.6 12.4 348 10.6
2007-12-04 08:44:49 51°15.129 2°54.671 345.6 12.6 349 10.4
2007-12-04 08:44:54 51°15.145 2°54.666 345.6 12 350 10.1
2007-12-04 08:45:00 51°15.165 2°54.661 346.3 12 350 10.3
2007-12-04 08:45:05 51°15.181 2°54.657 346.7 12 351 57.6
2007-12-04 08:45:10 51°15.198 2°54.652 346.8 12.1 349 10.5
2007-12-04 08:45:14 51°15.211 2°54.649 346.2 12.3 351 11.2
2007-12-04 08:45:19 51°15.228 2°54.644 346.5 11.9 350 10.8
2007-12-04 08:45:25 51°15.247 2°54.639 347.3 12.1 351 11
2007-12-04 08:45:29 51°15.261 2°54.635 346.7 12.2 350 11.3
2007-12-04 08:45:33 51°15.274 2°54.631 346.9 12.4 350 11.4
2007-12-04 08:45:39 51°15.294 2°54.625 346.5 12.3 349 11.5
2007-12-04 08:45:44 51°15.312 2°54.621 347 12.5 351 11.6
2007-12-04 08:45:49 51°15.329 2°54.616 347.3 12.1 350 10.9
2007-12-04 08:45:55 51°15.348 2°54.611 347.5 12.1 350 11.4
2007-12-04 08:46:00 51°15.365 2°54.606 347.2 11.9 349 11.5
2007-12-04 08:46:04 51°15.378 2°54.602 346 12.1 349 11.5
2007-12-04 08:46:09 51°15.394 2°54.596 344.7 12.1 346 11.8
2007-12-04 08:46:15 51°15.413 2°54.589 344 12.1 347 11.4
2007-12-04 08:46:20 51°15.43 2°54.582 343.6 12.2 346 11.9
2007-12-04 08:46:24 51°15.443 2°54.577 343.4 12.4 347 12
2007-12-04 08:46:29 51°15.46 2°54.572 344.1 12.5 348 11.9
2007-12-04 08:46:35 51°15.479 2°54.564 343.7 11.8 348 11.6
2007-12-04 08:46:40 51°15.495 2°54.56 344.5 12.1 348 11.4
2007-12-04 08:46:45 51°15.512 2°54.554 344.6 12 348 11.9
2007-12-04 08:46:49 51°15.525 2°54.549 344.8 11.7 347 11.4
2007-12-04 08:46:54 51°15.54 2°54.543 343.7 11.8 346 11.6
2007-12-04 08:47:00 51°15.559 2°54.535 343.3 12.1 346 11.9
2007-12-04 08:47:05 51°15.576 2°54.529 343.9 12.1 347 12.1
2007-12-04 08:47:09 51°15.589 2°54.524 343.6 12.1 346 12
2007-12-04 08:47:14 51°15.606 2°54.517 343.7 12.3 346 12.2
2007-12-04 08:47:20 51°15.626 2°54.509 343.9 12.6 345 12.5
2007-12-04 08:47:25 51°15.643 2°54.503 343.5 12.5 346 12.6
2007-12-04 08:47:29 51°15.656 2°54.497 343.6 12.3 345 12.3
2007-12-04 08:47:35 51°15.676 2°54.49 342.9 12.2 347 12.2
2007-12-04 08:47:39 51°15.689 2°54.484 343.6 12.1 345 12.2
2007-12-04 08:47:45 51°15.709 2°54.476 343.1 12.2 346 12.2
2007-12-04 08:47:49 51°15.723 2°54.471 343.2 12.2 344 12.5
2007-12-04 08:47:55 51°15.742 2°54.462 342.1 12.1 345 12.2
2007-12-04 08:47:59 51°15.755 2°54.455 341.5 12.2 343 12.7
2007-12-04 08:48:04 51°15.771 2°54.447 340.6 12.3 342 12.7
2007-12-04 08:48:09 51°15.788 2°54.439 339.5 12.3 341 12.9
2007-12-04 08:48:15 51°15.807 2°54.429 339.1 12.2 343 13
2007-12-04 08:48:19 51°15.82 2°54.422 339.1 12.2 342 13.1
2007-12-04 08:48:24 51°15.836 2°54.413 339 12.1 342 12.9
2007-12-04 08:48:29 51°15.852 2°54.404 338.5 12 340 12.8
2007-12-04 08:48:35 51°15.871 2°54.394 338.5 12.1 342 13.2
2007-12-04 08:48:39 51°15.883 2°54.387 338.9 12.2 341 13.2
2007-12-04 08:48:44 51°15.899 2°54.379 339.1 12.4 342 13.5
2007-12-04 08:48:49 51°15.915 2°54.371 338.9 12.2 342 13.4
2007-12-04 08:48:55 51°15.935 2°54.36 339.3 12.3 342 13.2
2007-12-04 08:49:00 51°15.951 2°54.352 339.2 12.2 342 13.3
2007-12-04 08:49:05 51°15.966 2°54.343 339.3 12.2 341 13.4
2007-12-04 08:49:09 51°15.979 2°54.336 339 12.2 342 13.1
2007-12-04 08:49:14 51°15.995 2°54.328 338.9 12.3 342 13.7
2007-12-04 08:49:20 51°16.014 2°54.318 339.2 11.9 343 13.6
2007-12-04 08:49:25 51°16.029 2°54.31 339.2 11.6 341 13.5
2007-12-04 08:49:29 51°16.042 2°54.304 339.6 11.6 343 13.6
2007-12-04 08:49:34 51°16.057 2°54.297 339.6 11.3 342 13.4
2007-12-04 08:49:39 51°16.071 2°54.29 339.5 11.1 343 13.6
2007-12-04 08:49:45 51°16.089 2°54.282 339.4 10.7 344 13.3
2007-12-04 08:49:49 51°16.1 2°54.276 339.8 10.6 342 13.5
2007-12-04 08:49:54 51°16.114 2°54.27 339.6 10.3 343 13.7
2007-12-04 08:49:59 51°16.127 2°54.263 339.4 9.7 344 13.7
2007-12-04 08:50:05 51°16.141 2°54.257 339.3 8.9 345 13.3
2007-12-04 08:50:09 51°16.15 2°54.253 339.5 8.2 345 13.6
2007-12-04 08:50:14 51°16.16 2°54.249 339.5 7.6 347 13.6
2007-12-04 08:50:19 51°16.17 2°54.246 339.3 6.9 348 13.4
2007-12-04 08:50:24 51°16.178 2°54.243 339 6.1 348 13.4
2007-12-04 08:50:29 51°16.186 2°54.241 338.9 5.5 350 13.6
2007-12-04 08:50:35 51°16.194 2°54.239 338 4.9 352 13.3
2007-12-04 08:50:40 51°16.2 2°54.239 337.8 4.5 357 13.3
2007-12-04 08:50:45 51°16.206 2°54.238 337.7 3.9 356 13
2007-12-04 08:50:49 51°16.21 2°54.238 338.3 3.8 -999 13.4
2007-12-04 08:50:55 51°16.216 2°54.238 339.7 3.5 -999 13.7
2007-12-04 08:51:00 51°16.221 2°54.24 342.2 3.4 10 13.8
2007-12-04 08:51:05 51°16.224 2°54.241 345 2.8 12 13.7
2007-12-04 08:51:09 51°16.228 2°54.242 348.7 2.7 17 13.3
2007-12-04 08:51:15 51°16.231 2°54.246 353.4 2.3 28 13.2
2007-12-04 08:51:20 51°16.234 2°54.249 357.2 2.4 33 13.1
2007-12-04 08:51:25 51°16.236 2°54.251 0.9 2.1 37 13.2
2007-12-04 08:51:29 51°16.238 2°54.253 4.9 1.9 33 13.2
2007-12-04 08:51:34 51°16.24 2°54.257 9.4 2 44 13.7
2007-12-04 08:51:40 51°16.242 2°54.261 13.8 2.1 54 13.9
2007-12-04 08:51:45 51°16.244 2°54.263 16.5 1.6 43 13.8
2007-12-04 08:51:49 51°16.245 2°54.266 19.6 1.6 60 13.9
2007-12-04 08:51:54 51°16.246 2°54.269 23.4 1.5 58 13.9
2007-12-04 08:51:59 51°16.247 2°54.272 26.1 1.4 67 13.9
2007-12-04 08:52:05 51°16.248 2°54.275 29.4 1.3 70 14
2007-12-04 08:52:09 51°16.248 2°54.277 32 1.3 75 14
2007-12-04 08:52:14 51°16.248 2°54.279 35.4 1.2 78 14
2007-12-04 08:52:19 51°16.248 2°54.281 37.1 1 68 13.8
2007-12-04 08:52:25 51°16.249 2°54.284 39.9 1 72 13.5
2007-12-04 08:52:29 51°16.249 2°54.288 42.5 1.2 79 13.6
2007-12-04 08:52:35 51°16.249 2°54.291 45 1.7 94 13.4
2007-12-04 08:52:39 51°16.25 2°54.292 45.4 1 48 13.1
2007-12-04 08:52:44 51°16.25 2°54.295 47 1.4 86 13.3
2007-12-04 08:52:49 51°16.251 2°54.297 48.7 1.2 59 13.5
2007-12-04 08:52:55 51°16.251 2°54.301 47.9 1.4 78 5.5
2007-12-04 08:53:00 51°16.251 2°54.303 49.8 1.4 80 -999
2007-12-04 08:53:06 51°16.252 2°54.306 51.2 1.2 73 -999
2007-12-04 08:53:11 51°16.252 2°54.309 50.9 1.4 91 -999
2007-12-04 08:53:17 51°16.252 2°54.313 51.5 1.5 90 -999
2007-12-04 08:53:22 51°16.253 2°54.315 52.1 1.5 91 149.8
2007-12-04 08:53:27 51°16.254 2°54.317 53.4 1 60 13.6
2007-12-04 08:53:32 51°16.253 2°54.321 55.3 1.4 95 13.5
2007-12-04 08:53:37 51°16.254 2°54.323 53.7 1.2 55 13.5
2007-12-04 08:53:42 51°16.254 2°54.327 54.4 1.6 93 13.4
2007-12-04 08:53:46 51°16.255 2°54.328 55.9 1.2 64 13.5
2007-12-04 08:53:51 51°16.254 2°54.332 56.5 1.3 79 13.7
2007-12-04 08:53:56 51°16.255 2°54.334 57 1.5 86 13.7
2007-12-04 08:54:01 51°16.256 2°54.336 57.3 1.3 78 13.5
2007-12-04 08:54:06 51°16.256 2°54.339 58.4 1.4 79 13.6
2007-12-04 08:54:10 51°16.257 2°54.342 59.1 1.4 74 13.6
2007-12-04 08:54:15 51°16.257 2°54.345 58.7 1.4 63 13.8
2007-12-04 08:54:20 51°16.257 2°54.348 58.8 1.5 85 13.8
2007-12-04 08:54:25 51°16.257 2°54.351 59 1.5 84 13.6
2007-12-04 08:54:30 51°16.258 2°54.354 59.3 1.4 67 13.5
2007-12-04 08:54:35 51°16.259 2°54.357 59.7 1.5 76 13.6
2007-12-04 08:54:39 51°16.259 2°54.36 59.1 1.5 77 13.7
2007-12-04 08:54:45 51°16.26 2°54.363 59.2 1.4 64 13.7
2007-12-04 08:54:49 51°16.26 2°54.366 58.9 1.5 78 13.8
2007-12-04 08:54:55 51°16.261 2°54.369 59.3 1.5 83 13.6
2007-12-04 08:55:00 51°16.262 2°54.372 58.9 1.2 57 13.3
2007-12-04 08:55:05 51°16.262 2°54.376 59.5 1.5 86 13.2
2007-12-04 08:55:09 51°16.263 2°54.378 59.5 1.4 58 13
2007-12-04 08:55:15 51°16.263 2°54.383 59.6 1.7 89 13.2
2007-12-04 08:55:20 51°16.264 2°54.385 59 1.4 57 13.2
2007-12-04 08:55:25 51°16.264 2°54.39 58.7 1.9 93 13.4
2007-12-04 08:55:29 51°16.266 2°54.391 58 1.5 53 13.4
2007-12-04 08:55:35 51°16.265 2°54.396 56.9 1.6 78 13.5
2007-12-04 08:55:40 51°16.267 2°54.399 56.8 1.6 63 13.7
2007-12-04 08:55:45 51°16.267 2°54.402 56.7 1.7 77 13.9
2007-12-04 08:55:49 51°16.268 2°54.404 56.8 1.5 62 13.7
2007-12-04 08:55:54 51°16.268 2°54.408 55.9 1.5 61 13.7
2007-12-04 08:56:00 51°16.269 2°54.412 56.4 1.8 89 13.6
2007-12-04 08:56:05 51°16.27 2°54.415 55.8 1.6 69 13.3
2007-12-04 08:56:09 51°16.27 2°54.417 55 1.5 71 13.2
2007-12-04 08:56:14 51°16.271 2°54.421 55.8 1.6 65 13.4
2007-12-04 08:56:19 51°16.272 2°54.425 54.9 1.6 65 13.4
2007-12-04 08:56:25 51°16.272 2°54.429 54.9 1.8 81 13.4
2007-12-04 08:56:29 51°16.273 2°54.431 54.2 1.5 66 13.3
2007-12-04 08:56:35 51°16.274 2°54.435 54.2 1.6 72 13.5
2007-12-04 08:56:39 51°16.275 2°54.438 53.5 1.5 62 13.7
2007-12-04 08:56:45 51°16.275 2°54.442 53.2 1.7 83 13.8
2007-12-04 08:56:49 51°16.276 2°54.444 53 1.6 70 13.7
2007-12-04 08:56:55 51°16.277 2°54.449 52.6 1.7 77 13.6
2007-12-04 08:56:59 51°16.277 2°54.451 52.4 1.7 67 13.6
2007-12-04 08:57:04 51°16.278 2°54.455 52 1.7 70 13.5
2007-12-04 08:57:09 51°16.279 2°54.458 50.4 1.6 59 13.4
2007-12-04 08:57:15 51°16.28 2°54.463 49.3 1.8 76 13.4
2007-12-04 08:57:19 51°16.281 2°54.465 48 1.5 56 13.4
2007-12-04 08:57:25 51°16.281 2°54.47 46.9 1.8 70 13.7
2007-12-04 08:57:29 51°16.282 2°54.472 45.8 1.9 77 13.6
2007-12-04 08:57:35 51°16.283 2°54.476 45 1.5 58 13.5
2007-12-04 08:57:39 51°16.283 2°54.48 43.7 1.9 82 13.6
2007-12-04 08:57:45 51°16.285 2°54.483 43.6 1.5 62 13.4
2007-12-04 08:57:49 51°16.285 2°54.486 41.9 1.4 65 13.4
2007-12-04 08:57:55 51°16.286 2°54.49 42 1.6 67 13.5
2007-12-04 08:58:00 51°16.287 2°54.493 40.2 1.6 68 13.6
2007-12-04 08:58:05 51°16.288 2°54.496 39.3 1.6 72 13.6
2007-12-04 08:58:09 51°16.289 2°54.499 38.4 1.5 67 13.4
2007-12-04 08:58:14 51°16.289 2°54.502 37.7 1.6 71 13.5
2007-12-04 08:58:20 51°16.29 2°54.506 38.1 1.7 74 13.3